Track STARLINK-1729 now! 10-day predictions STARLINK-1729 is classified as:
1 46583U 20070BD 24325.91668981 .01064242 00000-0 31904-1 0 9996 2 46583 53.0554 142.2738 0001206 66.7208 76.8516 15.31193047 5782